Terminal Aerodrome Forecast
Issued by NWS

Home | Current Version | Previous Version | Text Only | Print | Product List | Glossary On
Versions: 1 2 3 4 5 6 7 8 9 10 11 12 13 14 15 16 17 18 19 20
000
FTUS43 KPAH 271522 AAB
TAFCGI
TAF AMD
KCGI 271522Z 2715/2812 28007KT P6SM VCSH SCT030 BKN070
     FM271800 22008KT P6SM BKN050
      TEMPO 2720/2724 5SM -TSRA BR BKN050CB
     FM280100 19003KT P6SM SCT250=

USA.gov is the U.S. government's official web portal to all federal, state and local government web resources and services.